Location: Eferding
(48.3167°N, 14.0167°E)
Time: 18:32:13
(UTC+00:00)

Cosmos 923 Rocket - Pass Details

Date: 12 November 2019
Orbit: 759 x 785 km, 74.0° (Epoch: 12 December)

Event Time Altitude Azimuth Distance (km) Brightness Sun altitude
Rises 17:31:35 0° 184° (S) 3,223 7.3 -20.3°
Reaches altitude 10° 17:34:01 10° 179° (S) 2,297 6.5 -20.7°
Maximum altitude 17:39:00 48° 106° (ESE) 990 4.1 -21.5°
Enters shadow 17:39:05 48° 103° (ESE) 990 4.1 -21.6°
